Погода в Саратове

Россия / Саратовская область     51°31′59″N   46°02′02″E
темп.,
°C
ветер,
м/с
пор.,
м/с
влажн.,
%
обл.,
%
осадки,
мм/ч
давл.,
гПа
погр.,
м
17 июня, чт
чт1701:00+18сз57882 0.0 101175
04:00+18ссз45901 0.1 101362
07:00+18с45881 0.0 1014114
10:00+20ссв67765 0.0 1015225
13:00+21ссв68620 0.0 1017350
16:00+21ссв68560 0.0 1018374
19:00+21ссв56620 0.0 1019189
22:00+18ссв33760 0.0 102028
18 июня, пт
пт1801:00+16с34810 0.0 102169
04:00+16с46790 0.0 102295
07:00+16ссв47760 0.0 1023170
10:00+18св5766100 0.0 1024263
13:00+19всв575935 0.0 1025448
16:00+20св67570 0.0 1024430
19:00+19св68610 0.0 1025219
22:00+16всв34710 0.0 102762
19 июня, сб
сб1901:00+15св33700 0.0 102753
04:00+14ссв33740 0.0 102883
07:00+14св34726 0.0 1029174
10:00+17всв346799 0.0 1029256
13:00+19в23620 0.0 1028304
16:00+20всв12600 0.0 1027333
19:00+21всв23600 0.0 1026119
22:00+19всв22650 0.0 102611
20 июня, вс
вс2001:00+17ссв22715 0.0 102611
04:00+16ссв22730 0.0 102611
07:00+17ссв22760 0.0 102635
10:00+19св12730 0.0 1026150
13:00+19всв11700 0.0 1025263
16:00+21з11630 0.0 1024345
19:00+22з01670 0.0 1023208
22:00+21сз11650 0.0 102311
21 июня, пн
пн2101:00+20ссв1170100 0.0 102211
04:00+19с2277100 0.0 102211
07:00+19ссв228197 0.0 102335
10:00+20всв12814 0.0 1023175
13:00+21св01808 0.0 1022371
16:00+23з12720 0.0 1021492
19:00+24зюз01676 0.0 1020435
22:00+23ссв11682 0.0 102011